This is the latest recevied weather packets stored in our database for station/object N8GD. If no packets are shown the sender has not sent any weather packets the latest 10 day(s).
| Time | Temp. | Humidity | Pressure | Rain* | Wind** | Luminosity | Snow |
|---|---|---|---|---|---|---|---|
| 1777846137 | 14.44° C | 41% | 1015 hPa | 0 mm | - | - | - |
| 1777845237 | 14.44° C | 43% | 1015 hPa | 0 mm | - | - | - |
| 1777844337 | 13.89° C | 42% | 1015 hPa | 0 mm | - | - | - |
| 1777843437 | 14.44° C | 40% | 1015 hPa | 0 mm | - | - | - |
| 1777842537 | 14.44° C | 44% | 1015 hPa | 0 mm | - | - | - |
| 1777841637 | 15° C | 43% | 1015 hPa | 0 mm | - | - | - |
| 1777840737 | 14.44° C | 41% | 1015.3 hPa | 0 mm | - | - | - |
| 1777839838 | 14.44° C | 39% | 1015.6 hPa | 0 mm | - | - | - |
| 1777838936 | 13.89° C | 43% | 1015.8 hPa | 0 mm | - | - | - |
| 1777838038 | 14.44° C | 40% | 1016.1 hPa | 0 mm | - | - | - |
| 1777837136 | 14.44° C | 40% | 1016.3 hPa | 0 mm | - | - | - |
| 1777837005 | 14.44° C | 42% | 1016.3 hPa | 0 mm | - | - | - |
| 1777836238 | 14.44° C | 41% | 1016.6 hPa | 0 mm | - | - | - |
| 1777835337 | 13.89° C | 45% | 1016.8 hPa | 0 mm | - | - | - |
| 1777834438 | 13.33° C | 49% | 1017 hPa | 0 mm | - | - | - |
| 1777833536 | 13.33° C | 43% | 1017.2 hPa | 0 mm | - | - | - |
| 1777832638 | 13.33° C | 45% | 1017.3 hPa | 0 mm | - | - | - |
| 1777831736 | 12.78° C | 46% | 1017.3 hPa | 0 mm | - | - | - |
| 1777830839 | 12.78° C | 46% | 1017.5 hPa | 0 mm | - | - | - |
| 1777829863 | 12.22° C | 46% | 1017.9 hPa | 0 mm | - | - | - |
| 1777828963 | 12.22° C | 45% | 1017.9 hPa | 0 mm | - | - | - |
| 1777828063 | 12.22° C | 42% | 1018.2 hPa | 0 mm | - | - | - |
| 1777827163 | 12.22° C | 47% | 1018.4 hPa | 0 mm | - | - | - |
| 1777826263 | 11.67° C | 45% | 1018.5 hPa | 0 mm | - | - | - |
| 1777825363 | 11.67° C | 46% | 1018.6 hPa | 0 mm | - | - | - |
* Rain latest hour (hover to see other rain measurements)
** Current wind speed in m/s (hover to see current wind gust speed)